Time,TemperatureF,DewpointF,PressureIn,WindDirection,WindDirectionDegrees,WindSpeedMPH,WindSpeedGustMPH,Humidity,HourlyPrecipIn,Conditions,Clouds,dailyrainin,SolarRadiationWatts/m^2,SoftwareType,DateUTC
2013-03-05 00:01:00,65.4,56.9,29.64,SSE,163,12.0,17.0,74,0.00,,---,0.00,0.00,VWS V14.00,2013-03-05 06:01:00,
2013-03-05 00:08:00,65.2,57.1,29.65,South,185,11.0,17.0,75,0.00,,---,0.00,0.00,VWS V14.00,2013-03-05 06:08:00,
2013-03-05 00:14:00,65.2,57.1,29.65,South,191,6.0,13.0,75,0.00,,---,0.00,0.00,VWS V14.00,2013-03-05 06:14:00,
2013-03-05 00:22:00,64.9,57.2,29.72,NW,306,12.0,17.0,76,0.00,,---,0.00,0.00,VWS V14.00,2013-03-05 06:22:00,
2013-03-05 00:30:00,65.8,57.3,29.72,NNW,331,7.0,17.0,74,0.00,,---,0.00,0.00,VWS V14.00,2013-03-05 06:30:00,
2013-03-05 00:37:00,66.1,57.6,29.73,NNW,331,5.0,17.0,74,0.00,,---,0.00,0.00,VWS V14.00,2013-03-05 06:37:00,
2013-03-05 00:46:00,65.9,57.0,29.73,WSW,238,0.0,6.0,73,0.00,,---,0.00,0.00,VWS V14.00,2013-03-05 06:46:00,
2013-03-05 00:54:00,65.9,57.0,29.74,SW,234,0.0,6.0,73,0.00,,---,0.00,0.00,VWS V14.00,2013-03-05 06:54:00,
2013-03-05 01:02:00,65.6,56.3,29.74,WNW,282,0.0,6.0,72,0.00,,---,0.00,0.00,VWS V14.00,2013-03-05 07:02:00,
2013-03-05 01:07:00,64.8,56.3,29.74,WNW,282,0.0,6.0,74,0.00,,---,0.00,0.00,VWS V14.00,2013-03-05 07:07:00,
2013-03-05 01:14:00,64.5,56.4,29.74,WNW,282,0.0,0.0,75,0.00,,---,0.00,0.00,VWS V14.00,2013-03-05 07:14:00,
2013-03-05 01:22:00,64.3,56.6,29.75,WNW,282,0.0,0.0,76,0.00,,---,0.00,0.00,VWS V14.00,2013-03-05 07:22:00,
2013-03-05 01:30:00,64.0,49.4,29.75,NNW,328,10.0,11.0,59,0.00,,---,0.00,0.00,VWS V14.00,2013-03-05 07:30:00,
2013-03-05 01:37:00,62.5,47.5,29.78,NNW,327,6.0,15.0,58,0.00,,---,0.00,0.00,VWS V14.00,2013-03-05 07:37:00,
2013-03-05 01:43:00,61.2,46.8,29.78,North,350,6.0,15.0,59,0.00,,---,0.00,0.00,VWS V14.00,2013-03-05 07:43:00,
2013-03-05 01:51:00,59.9,46.4,29.78,North,5,13.0,15.0,61,0.00,,---,0.00,0.00,VWS V14.00,2013-03-05 07:51:00,
2013-03-05 01:59:00,58.9,45.9,29.81,North,355,7.0,15.0,62,0.00,,---,0.00,0.00,VWS V14.00,2013-03-05 07:59:00,
2013-03-05 02:07:00,58.2,46.1,29.83,NW,312,6.0,15.0,64,0.00,,---,0.00,0.00,VWS V14.00,2013-03-05 08:07:00,
2013-03-05 02:15:00,57.8,45.7,29.83,NW,311,12.0,14.0,64,0.00,,---,0.00,0.00,VWS V14.00,2013-03-05 08:15:00,
2013-03-05 02:23:00,57.6,45.5,29.85,NW,326,10.0,17.0,64,0.00,,---,0.00,0.00,VWS V14.00,2013-03-05 08:23:00,
2013-03-05 02:31:00,57.2,45.2,29.85,North,5,6.0,17.0,64,0.00,,---,0.00,0.00,VWS V14.00,2013-03-05 08:31:00,
2013-03-05 02:37:00,56.8,44.3,29.86,NW,321,11.0,19.0,63,0.00,,---,0.00,0.00,VWS V14.00,2013-03-05 08:37:00,
2013-03-05 02:43:00,56.4,44.8,29.86,North,5,14.0,15.0,65,0.00,,---,0.00,0.00,VWS V14.00,2013-03-05 08:43:00,
2013-03-05 02:52:00,55.9,43.9,29.89,North,360,18.0,18.0,64,0.00,,---,0.00,0.00,VWS V14.00,2013-03-05 08:52:00,
2013-03-05 03:00:00,55.0,43.5,29.89,NNW,344,10.0,23.0,65,0.00,,---,0.00,0.00,VWS V14.00,2013-03-05 09:00:00,
2013-03-05 03:08:00,54.2,43.9,29.91,NNW,342,11.0,11.0,68,0.00,,---,0.00,0.00,VWS V14.00,2013-03-05 09:08:00,
2013-03-05 03:16:00,53.2,42.9,29.91,North,5,17.0,18.0,68,0.00,,---,0.00,0.00,VWS V14.00,2013-03-05 09:16:00,
2013-03-05 03:24:00,52.1,43.0,29.93,NNW,333,10.0,20.0,71,0.00,,---,0.00,0.00,VWS V14.00,2013-03-05 09:24:00,
2013-03-05 03:32:00,51.4,42.0,29.93,WNW,291,12.0,23.0,70,0.00,,---,0.00,0.00,VWS V14.00,2013-03-05 09:32:00,
2013-03-05 03:37:00,50.9,41.1,29.94,NNW,348,15.0,23.0,69,0.00,,---,0.00,0.00,VWS V14.00,2013-03-05 09:37:00,
2013-03-05 03:44:00,50.7,41.7,29.94,NNW,344,7.0,19.0,71,0.00,,---,0.00,0.00,VWS V14.00,2013-03-05 09:44:00,
2013-03-05 03:52:00,50.5,41.1,29.96,NNW,340,9.0,23.0,70,0.00,,---,0.00,0.00,VWS V14.00,2013-03-05 09:52:00,
2013-03-05 04:01:00,50.3,40.9,29.96,NW,311,6.0,23.0,70,0.00,,---,0.00,0.00,VWS V14.00,2013-03-05 10:01:00,
2013-03-05 04:08:00,50.2,40.1,30.01,NNW,333,12.0,26.0,68,0.00,,---,0.00,0.00,VWS V14.00,2013-03-05 10:08:00,
2013-03-05 04:17:00,50.1,39.6,30.01,NNW,333,10.0,18.0,67,0.00,,---,0.00,0.00,VWS V14.00,2013-03-05 10:17:00,
2013-03-05 04:25:00,49.9,39.4,30.02,NW,308,11.0,19.0,67,0.00,,---,0.00,0.00,VWS V14.00,2013-03-05 10:25:00,
2013-03-05 04:33:00,49.7,38.8,30.02,North,349,14.0,23.0,66,0.00,,---,0.00,0.00,VWS V14.00,2013-03-05 10:33:00,
2013-03-05 04:41:00,49.6,38.7,30.02,NNW,340,11.0,16.0,66,0.00,,---,0.00,0.00,VWS V14.00,2013-03-05 10:41:00,
2013-03-05 04:49:00,49.5,38.6,30.02,North,355,12.0,16.0,66,0.00,,---,0.00,0.00,VWS V14.00,2013-03-05 10:49:00,
2013-03-05 04:57:00,49.4,38.5,30.03,NNE,17,16.0,21.0,66,0.00,,---,0.00,0.00,VWS V14.00,2013-03-05 10:57:00,
2013-03-05 05:05:00,49.3,38.0,30.03,NNW,335,7.0,21.0,65,0.00,,---,0.00,0.00,VWS V14.00,2013-03-05 11:05:00,
2013-03-05 05:13:00,49.1,37.9,30.06,NNW,346,12.0,12.0,65,0.00,,---,0.00,0.00,VWS V14.00,2013-03-05 11:13:00,
2013-03-05 05:21:00,49.0,38.2,30.06,NNW,344,5.0,18.0,66,0.00,,---,0.00,0.00,VWS V14.00,2013-03-05 11:21:00,
2013-03-05 05:30:00,48.8,37.6,30.06,North,350,17.0,18.0,65,0.00,,---,0.00,0.00,VWS V14.00,2013-03-05 11:30:00,
2013-03-05 05:37:00,48.7,37.9,30.06,NNW,338,8.0,20.0,66,0.00,,---,0.00,0.00,VWS V14.00,2013-03-05 11:37:00,
2013-03-05 05:46:00,48.5,37.3,30.06,North,10,22.0,22.0,65,0.00,,---,0.00,0.00,VWS V14.00,2013-03-05 11:46:00,
2013-03-05 05:54:00,48.4,37.6,30.07,NW,321,14.0,22.0,66,0.00,,---,0.00,0.00,VWS V14.00,2013-03-05 11:54:00,
2013-03-05 06:02:00,48.2,37.8,30.07,North,360,14.0,22.0,67,0.00,,---,0.00,0.00,VWS V14.00,2013-03-05 12:02:00,
2013-03-05 06:08:00,48.1,37.7,30.09,NNW,347,11.0,22.0,67,0.00,,---,0.00,0.00,VWS V14.00,2013-03-05 12:08:00,
2013-03-05 06:14:00,47.9,37.9,30.09,North,355,11.0,20.0,68,0.00,,---,0.00,0.00,VWS V14.00,2013-03-05 12:14:00,
2013-03-05 06:22:00,47.5,37.5,30.09,North,360,7.0,20.0,68,0.00,,---,0.00,0.00,VWS V14.00,2013-03-05 12:22:00,
2013-03-05 06:30:00,47.2,37.6,30.09,NW,316,10.0,20.0,69,0.00,,---,0.00,0.00,VWS V14.00,2013-03-05 12:30:00,
2013-03-05 06:37:00,47.0,37.4,30.11,North,351,11.0,20.0,69,0.00,,---,0.00,0.00,VWS V14.00,2013-03-05 12:37:00,
2013-03-05 06:43:00,46.9,37.3,30.11,NW,323,8.0,12.0,69,0.00,,---,0.00,0.00,VWS V14.00,2013-03-05 12:43:00,
2013-03-05 06:51:00,46.7,37.5,30.11,North,5,5.0,13.0,70,0.00,,---,0.00,5.00,VWS V14.00,2013-03-05 12:51:00,
2013-03-05 06:59:00,46.5,37.6,30.12,NW,304,19.0,19.0,71,0.00,,---,0.00,14.00,VWS V14.00,2013-03-05 12:59:00,
2013-03-05 07:07:00,46.5,37.6,30.13,NNW,342,8.0,19.0,71,0.00,,---,0.00,23.00,VWS V14.00,2013-03-05 13:07:00,
2013-03-05 07:15:00,46.5,37.3,30.13,NNW,327,5.0,15.0,70,0.00,,---,0.00,42.00,VWS V14.00,2013-03-05 13:15:00,
2013-03-05 07:23:00,46.6,37.0,30.14,WNW,288,9.0,21.0,69,0.00,,---,0.00,65.00,VWS V14.00,2013-03-05 13:23:00,
2013-03-05 07:31:00,46.7,36.7,30.14,NNW,338,13.0,21.0,68,0.00,,---,0.00,49.00,VWS V14.00,2013-03-05 13:31:00,
2013-03-05 07:37:00,46.8,37.2,30.16,NW,325,11.0,21.0,69,0.00,,---,0.00,105.00,VWS V14.00,2013-03-05 13:37:00,
2013-03-05 07:44:00,46.8,36.4,30.16,NW,311,12.0,15.0,67,0.00,,---,0.00,134.00,VWS V14.00,2013-03-05 13:44:00,
2013-03-05 07:52:00,46.9,36.5,30.17,North,355,8.0,20.0,67,0.00,,---,0.00,172.00,VWS V14.00,2013-03-05 13:52:00,
2013-03-05 08:00:00,46.9,36.2,30.17,North,355,17.0,20.0,66,0.00,,---,0.00,207.00,VWS V14.00,2013-03-05 14:00:00,
2013-03-05 08:07:00,47.0,36.6,30.18,NNW,338,9.0,20.0,67,0.00,,---,0.00,232.00,VWS V14.00,2013-03-05 14:07:00,
2013-03-05 08:16:00,47.3,36.5,30.18,North,5,19.0,19.0,66,0.00,,---,0.00,264.00,VWS V14.00,2013-03-05 14:16:00,
2013-03-05 08:24:00,47.4,36.2,30.19,North,11,17.0,19.0,65,0.00,,---,0.00,295.00,VWS V14.00,2013-03-05 14:24:00,
2013-03-05 08:32:00,47.6,36.0,30.19,North,5,17.0,20.0,64,0.00,,---,0.00,329.00,VWS V14.00,2013-03-05 14:32:00,
2013-03-05 08:37:00,47.6,36.0,30.20,NNE,15,13.0,20.0,64,0.00,,---,0.00,339.00,VWS V14.00,2013-03-05 14:37:00,
2013-03-05 08:45:00,47.8,35.4,30.20,North,5,16.0,20.0,62,0.00,,---,0.00,371.00,VWS V14.00,2013-03-05 14:45:00,
2013-03-05 08:53:00,48.1,34.9,30.20,NW,323,13.0,28.0,60,0.00,,---,0.00,399.00,VWS V14.00,2013-03-05 14:53:00,
2013-03-05 09:01:00,48.2,35.0,30.20,NW,324,10.0,28.0,60,0.00,,---,0.00,427.00,VWS V14.00,2013-03-05 15:01:00,
2013-03-05 09:08:00,48.8,36.0,30.21,WNW,298,6.0,28.0,61,0.00,,---,0.00,450.00,VWS V14.00,2013-03-05 15:08:00,
2013-03-05 09:14:00,49.3,36.0,30.21,NW,312,10.0,18.0,60,0.00,,---,0.00,468.00,VWS V14.00,2013-03-05 15:14:00,
2013-03-05 09:21:00,49.6,35.5,30.21,NNW,336,8.0,18.0,58,0.00,,---,0.00,492.00,VWS V14.00,2013-03-05 15:21:00,
2013-03-05 09:29:00,49.6,35.5,30.22,North,5,10.0,20.0,58,0.00,,---,0.00,519.00,VWS V14.00,2013-03-05 15:29:00,
2013-03-05 09:37:00,49.9,34.8,30.22,NNW,327,12.0,20.0,56,0.00,,---,0.00,547.00,VWS V14.00,2013-03-05 15:37:00,
2013-03-05 09:46:00,50.3,35.2,30.22,North,355,10.0,16.0,56,0.00,,---,0.00,568.00,VWS V14.00,2013-03-05 15:46:00,
2013-03-05 09:54:00,50.9,35.8,30.22,WNW,302,12.0,16.0,56,0.00,,---,0.00,592.00,VWS V14.00,2013-03-05 15:54:00,
2013-03-05 10:02:00,50.9,34.9,30.22,NNW,345,12.0,16.0,54,0.00,,---,0.00,612.00,VWS V14.00,2013-03-05 16:02:00,
2013-03-05 10:08:00,51.4,33.9,30.23,North,355,4.0,16.0,51,0.00,,---,0.00,629.00,VWS V14.00,2013-03-05 16:08:00,
2013-03-05 10:14:00,51.6,34.1,30.23,North,5,17.0,17.0,51,0.00,,---,0.00,645.00,VWS V14.00,2013-03-05 16:14:00,
2013-03-05 10:22:00,51.7,34.2,30.23,North,350,11.0,18.0,51,0.00,,---,0.00,664.00,VWS V14.00,2013-03-05 16:22:00,
2013-03-05 10:30:00,52.2,33.1,30.23,North,355,9.0,18.0,48,0.00,,---,0.00,684.00,VWS V14.00,2013-03-05 16:30:00,
2013-03-05 10:37:00,52.4,32.2,30.24,West,281,10.0,19.0,46,0.00,,---,0.00,700.00,VWS V14.00,2013-03-05 16:37:00,
2013-03-05 10:46:00,52.6,31.9,30.24,NNW,342,6.0,14.0,45,0.00,,---,0.00,719.00,VWS V14.00,2013-03-05 16:46:00,
2013-03-05 10:54:00,53.0,30.5,30.25,North,360,13.0,16.0,42,0.00,,---,0.00,735.00,VWS V14.00,2013-03-05 16:54:00,
2013-03-05 11:03:00,53.2,30.7,30.25,North,360,13.0,17.0,42,0.00,,---,0.00,745.00,VWS V14.00,2013-03-05 17:03:00,
2013-03-05 11:08:00,53.4,30.3,30.26,North,351,14.0,17.0,41,0.00,,---,0.00,759.00,VWS V14.00,2013-03-05 17:08:00,
2013-03-05 11:15:00,53.2,31.9,30.26,NNW,344,15.0,16.0,44,0.00,,---,0.00,763.00,VWS V14.00,2013-03-05 17:15:00,
2013-03-05 11:23:00,53.9,33.1,30.26,North,5,9.0,16.0,45,0.00,,---,0.00,775.00,VWS V14.00,2013-03-05 17:23:00,
2013-03-05 11:31:00,54.0,31.5,30.26,NW,311,8.0,16.0,42,0.00,,---,0.00,788.00,VWS V14.00,2013-03-05 17:31:00,
2013-03-05 11:37:00,54.8,31.0,30.26,NW,316,9.0,16.0,40,0.00,,---,0.00,796.00,VWS V14.00,2013-03-05 17:37:00,
2013-03-05 11:43:00,54.1,31.5,30.26,NNW,327,14.0,15.0,42,0.00,,---,0.00,800.00,VWS V14.00,2013-03-05 17:43:00,
2013-03-05 11:51:00,55.0,31.1,30.26,North,5,9.0,15.0,40,0.00,,---,0.00,809.00,VWS V14.00,2013-03-05 17:51:00,
2013-03-05 11:59:00,54.1,31.5,30.25,North,355,7.0,15.0,42,0.00,,---,0.00,816.00,VWS V14.00,2013-03-05 17:59:00,
2013-03-05 12:07:00,54.4,33.0,30.26,NNW,345,14.0,15.0,44,0.00,,---,0.00,823.00,VWS V14.00,2013-03-05 18:07:00,
2013-03-05 12:15:00,54.5,28.8,30.26,NW,319,12.0,16.0,37,0.00,,---,0.00,824.00,VWS V14.00,2013-03-05 18:15:00,
2013-03-05 12:23:00,54.9,30.4,30.26,North,11,6.0,16.0,39,0.00,,---,0.00,828.00,VWS V14.00,2013-03-05 18:23:00,
2013-03-05 12:32:00,54.5,28.1,30.26,NNW,336,10.0,16.0,36,0.00,,---,0.00,828.00,VWS V14.00,2013-03-05 18:32:00,
2013-03-05 12:37:00,54.4,28.7,30.26,North,5,6.0,24.0,37,0.00,,---,0.00,828.00,VWS V14.00,2013-03-05 18:37:00,
2013-03-05 12:44:00,54.7,27.6,30.26,NW,325,4.0,18.0,35,0.00,,---,0.00,831.00,VWS V14.00,2013-03-05 18:44:00,
2013-03-05 12:52:00,55.5,27.6,30.25,WNW,296,7.0,18.0,34,0.00,,---,0.00,828.00,VWS V14.00,2013-03-05 18:52:00,
2013-03-05 13:00:00,55.3,28.1,30.25,NW,309,13.0,18.0,35,0.00,,---,0.00,824.00,VWS V14.00,2013-03-05 19:00:00,
2013-03-05 13:08:00,55.0,27.2,30.25,North,355,15.0,18.0,34,0.00,,---,0.00,823.00,VWS V14.00,2013-03-05 19:08:00,
2013-03-05 13:16:00,55.5,29.0,30.25,North,5,5.0,15.0,36,0.00,,---,0.00,816.00,VWS V14.00,2013-03-05 19:16:00,
2013-03-05 13:25:00,55.9,28.7,30.25,NNW,332,11.0,17.0,35,0.00,,---,0.00,807.00,VWS V14.00,2013-03-05 19:25:00,
2013-03-05 13:33:00,55.5,26.1,30.25,WNW,294,6.0,17.0,32,0.00,,---,0.00,795.00,VWS V14.00,2013-03-05 19:33:00,
2013-03-05 13:41:00,56.5,27.0,30.25,WNW,293,5.0,12.0,32,0.00,,---,0.00,788.00,VWS V14.00,2013-03-05 19:41:00,
2013-03-05 13:49:00,56.7,25.6,30.25,WNW,286,10.0,13.0,30,0.00,,---,0.00,782.00,VWS V14.00,2013-03-05 19:49:00,
2013-03-05 13:57:00,56.1,24.3,30.25,North,355,5.0,16.0,29,0.00,,---,0.00,770.00,VWS V14.00,2013-03-05 19:57:00,
2013-03-05 14:05:00,55.9,24.1,30.25,NNE,22,9.0,17.0,29,0.00,,---,0.00,758.00,VWS V14.00,2013-03-05 20:05:00,
2013-03-05 14:13:00,56.4,25.4,30.25,North,5,12.0,14.0,30,0.00,,---,0.00,745.00,VWS V14.00,2013-03-05 20:13:00,
2013-03-05 14:22:00,57.1,26.8,30.25,NNW,340,4.0,14.0,31,0.00,,---,0.00,726.00,VWS V14.00,2013-03-05 20:22:00,
2013-03-05 14:30:00,56.7,23.1,30.24,NNW,342,12.0,15.0,27,0.00,,---,0.00,712.00,VWS V14.00,2013-03-05 20:30:00,
2013-03-05 14:37:00,56.5,25.5,30.24,North,5,7.0,15.0,30,0.00,,---,0.00,694.00,VWS V14.00,2013-03-05 20:37:00,
2013-03-05 14:46:00,56.4,26.9,30.24,WNW,292,5.0,15.0,32,0.00,,---,0.00,671.00,VWS V14.00,2013-03-05 20:46:00,
2013-03-05 14:54:00,56.3,24.5,30.24,NNW,339,10.0,15.0,29,0.00,,---,0.00,654.00,VWS V14.00,2013-03-05 20:54:00,
2013-03-05 15:03:00,56.4,24.6,30.24,WNW,303,11.0,15.0,29,0.00,,---,0.00,635.00,VWS V14.00,2013-03-05 21:03:00,
2013-03-05 15:11:00,56.4,23.7,30.24,NNW,334,13.0,14.0,28,0.00,,---,0.00,608.00,VWS V14.00,2013-03-05 21:11:00,
2013-03-05 15:19:00,56.5,25.5,30.24,North,355,14.0,14.0,30,0.00,,---,0.00,589.00,VWS V14.00,2013-03-05 21:19:00,
2013-03-05 15:27:00,56.7,24.8,30.24,North,11,9.0,15.0,29,0.00,,---,0.00,559.00,VWS V14.00,2013-03-05 21:27:00,
2013-03-05 15:35:00,56.6,27.1,30.24,NNW,346,11.0,15.0,32,0.00,,---,0.00,534.00,VWS V14.00,2013-03-05 21:35:00,
2013-03-05 15:43:00,56.7,25.6,30.24,North,5,3.0,12.0,30,0.00,,---,0.00,515.00,VWS V14.00,2013-03-05 21:43:00,
2013-03-05 15:51:00,57.1,26.0,30.24,NW,325,4.0,14.0,30,0.00,,---,0.00,480.00,VWS V14.00,2013-03-05 21:51:00,
2013-03-05 15:59:00,56.4,25.4,30.24,WNW,302,7.0,14.0,30,0.00,,---,0.00,461.00,VWS V14.00,2013-03-05 21:59:00,
2013-03-05 16:07:00,56.9,24.1,30.24,NNW,345,9.0,16.0,28,0.00,,---,0.00,432.00,VWS V14.00,2013-03-05 22:07:00,
2013-03-05 16:15:00,56.4,26.9,30.24,North,9,6.0,13.0,32,0.00,,---,0.00,404.00,VWS V14.00,2013-03-05 22:15:00,
2013-03-05 16:24:00,56.3,26.8,30.24,North,355,6.0,16.0,32,0.00,,---,0.00,378.00,VWS V14.00,2013-03-05 22:24:00,
2013-03-05 16:32:00,56.4,25.4,30.24,North,5,10.0,16.0,30,0.00,,---,0.00,346.00,VWS V14.00,2013-03-05 22:32:00,
2013-03-05 16:37:00,56.0,25.8,30.24,North,5,5.0,16.0,31,0.00,,---,0.00,325.00,VWS V14.00,2013-03-05 22:37:00,
2013-03-05 16:44:00,56.1,25.9,30.24,NNW,347,4.0,7.0,31,0.00,,---,0.00,267.00,VWS V14.00,2013-03-05 22:44:00,
2013-03-05 16:52:00,55.7,26.3,30.24,NNW,329,0.0,14.0,32,0.00,,---,0.00,250.00,VWS V14.00,2013-03-05 22:52:00,
2013-03-05 17:00:00,55.5,24.6,30.24,North,355,6.0,14.0,30,0.00,,---,0.00,206.00,VWS V14.00,2013-03-05 23:00:00,
2013-03-05 17:08:00,55.2,23.5,30.24,NNW,336,2.0,14.0,29,0.00,,---,0.00,162.00,VWS V14.00,2013-03-05 23:08:00,
2013-03-05 17:20:00,54.9,26.4,30.24,NNW,340,3.0,11.0,33,0.00,,---,0.00,81.00,VWS V14.00,2013-03-05 23:20:00,
2013-03-05 17:29:00,54.5,26.0,30.24,NNW,348,5.0,13.0,33,0.00,,---,0.00,72.00,VWS V14.00,2013-03-05 23:29:00,
2013-03-05 17:37:00,54.2,27.9,30.24,NNW,348,4.0,13.0,36,0.00,,---,0.00,53.00,VWS V14.00,2013-03-05 23:37:00,
2013-03-05 17:45:00,53.9,27.6,30.24,NNW,334,4.0,10.0,36,0.00,,---,0.00,35.00,VWS V14.00,2013-03-05 23:45:00,
2013-03-05 17:53:00,53.7,25.3,30.25,North,355,5.0,13.0,33,0.00,,---,0.00,28.00,VWS V14.00,2013-03-05 23:53:00,
2013-03-05 18:01:00,53.4,27.1,30.25,NW,304,5.0,13.0,36,0.00,,---,0.00,21.00,VWS V14.00,2013-03-06 00:01:00,
2013-03-05 18:07:00,53.1,26.9,30.25,NW,320,5.0,13.0,36,0.00,,---,0.00,16.00,VWS V14.00,2013-03-06 00:07:00,
2013-03-05 18:13:00,52.9,27.4,30.25,NW,313,5.0,11.0,37,0.00,,---,0.00,11.00,VWS V14.00,2013-03-06 00:13:00,
2013-03-05 18:21:00,52.5,27.0,30.25,NW,325,2.0,11.0,37,0.00,,---,0.00,5.00,VWS V14.00,2013-03-06 00:21:00,
2013-03-05 18:30:00,51.9,26.5,30.26,NNW,346,0.0,11.0,37,0.00,,---,0.00,0.00,VWS V14.00,2013-03-06 00:30:00,
2013-03-05 18:37:00,51.0,26.9,30.26,WNW,292,5.0,11.0,39,0.00,,---,0.00,0.00,VWS V14.00,2013-03-06 00:37:00,
2013-03-05 18:46:00,49.5,26.8,30.26,NW,319,0.0,3.0,41,0.00,,---,0.00,0.00,VWS V14.00,2013-03-06 00:46:00,
2013-03-05 18:54:00,48.7,26.6,30.27,NW,306,0.0,5.0,42,0.00,,---,0.00,0.00,VWS V14.00,2013-03-06 00:54:00,
2013-03-05 19:02:00,48.0,26.6,30.27,NW,311,0.0,5.0,43,0.00,,---,0.00,0.00,VWS V14.00,2013-03-06 01:02:00,
2013-03-05 19:08:00,47.9,25.9,30.28,NW,319,0.0,5.0,42,0.00,,---,0.00,0.00,VWS V14.00,2013-03-06 01:08:00,
2013-03-05 19:14:00,47.8,25.8,30.28,NW,319,0.0,0.0,42,0.00,,---,0.00,0.00,VWS V14.00,2013-03-06 01:14:00,
2013-03-05 19:23:00,47.2,26.4,30.29,NW,319,0.0,0.0,44,0.00,,---,0.00,0.00,VWS V14.00,2013-03-06 01:23:00,
2013-03-05 19:31:00,47.0,25.7,30.29,NW,319,0.0,0.0,43,0.00,,---,0.00,0.00,VWS V14.00,2013-03-06 01:31:00,
2013-03-05 19:37:00,46.3,26.1,30.29,NW,319,0.0,0.0,45,0.00,,---,0.00,0.00,VWS V14.00,2013-03-06 01:37:00,
2013-03-05 19:43:00,45.9,26.3,30.29,NW,319,0.0,0.0,46,0.00,,---,0.00,0.00,VWS V14.00,2013-03-06 01:43:00,
2013-03-05 19:51:00,46.0,24.2,30.29,NW,319,0.0,0.0,42,0.00,,---,0.00,0.00,VWS V14.00,2013-03-06 01:51:00,
2013-03-05 19:59:00,46.0,24.8,30.29,NW,319,2.0,2.0,43,0.00,,---,0.00,0.00,VWS V14.00,2013-03-06 01:59:00,
2013-03-05 20:07:00,45.1,25.6,30.29,West,266,3.0,3.0,46,0.00,,---,0.00,0.00,VWS V14.00,2013-03-06 02:07:00,
2013-03-05 20:16:00,45.4,25.3,30.29,West,269,0.0,3.0,45,0.00,,---,0.00,0.00,VWS V14.00,2013-03-06 02:16:00,
2013-03-05 20:24:00,45.2,25.7,30.30,West,267,0.0,3.0,46,0.00,,---,0.00,0.00,VWS V14.00,2013-03-06 02:24:00,
2013-03-05 20:32:00,45.4,24.8,30.30,WNW,293,0.0,5.0,44,0.00,,---,0.00,0.00,VWS V14.00,2013-03-06 02:32:00,
2013-03-05 20:38:00,46.0,24.8,30.31,NW,305,2.0,5.0,43,0.00,,---,0.00,0.00,VWS V14.00,2013-03-06 02:38:00,
2013-03-05 20:48:00,46.8,25.5,30.31,NW,306,0.0,5.0,43,0.00,,---,0.00,0.00,VWS V14.00,2013-03-06 02:48:00,
2013-03-05 20:56:00,47.5,25.6,30.31,NW,323,2.0,7.0,42,0.00,,---,0.00,0.00,VWS V14.00,2013-03-06 02:56:00,
2013-03-05 21:05:00,47.8,25.8,30.31,NW,318,0.0,7.0,42,0.00,,---,0.00,0.00,VWS V14.00,2013-03-06 03:05:00,
2013-03-05 21:13:00,48.5,26.5,30.31,NNW,336,3.0,9.0,42,0.00,,---,0.00,0.00,VWS V14.00,2013-03-06 03:13:00,
2013-03-05 21:21:00,48.5,26.5,30.31,NNW,340,9.0,9.0,42,0.00,,---,0.00,0.00,VWS V14.00,2013-03-06 03:21:00,
2013-03-05 21:29:00,48.5,26.5,30.32,NW,304,5.0,10.0,42,0.00,,---,0.00,0.00,VWS V14.00,2013-03-06 03:29:00,
2013-03-05 21:37:00,48.3,26.3,30.32,NW,317,6.0,10.0,42,0.00,,---,0.00,0.00,VWS V14.00,2013-03-06 03:37:00,
2013-03-05 21:45:00,48.2,27.3,30.32,North,355,4.0,9.0,44,0.00,,---,0.00,0.00,VWS V14.00,2013-03-06 03:45:00,
2013-03-05 21:53:00,47.8,27.0,30.32,NNW,335,3.0,11.0,44,0.00,,---,0.00,0.00,VWS V14.00,2013-03-06 03:53:00,
2013-03-05 22:01:00,47.8,27.0,30.32,NW,318,5.0,11.0,44,0.00,,---,0.00,0.00,VWS V14.00,2013-03-06 04:01:00,
2013-03-05 22:08:00,47.7,26.9,30.32,NW,320,6.0,11.0,44,0.00,,---,0.00,0.00,VWS V14.00,2013-03-06 04:08:00,
2013-03-05 22:13:00,47.4,26.6,30.32,NNW,329,7.0,7.0,44,0.00,,---,0.00,0.00,VWS V14.00,2013-03-06 04:13:00,
2013-03-05 22:22:00,47.2,26.4,30.32,North,349,3.0,7.0,44,0.00,,---,0.00,0.00,VWS V14.00,2013-03-06 04:22:00,
2013-03-05 22:30:00,47.0,26.8,30.32,North,9,3.0,7.0,45,0.00,,---,0.00,0.00,VWS V14.00,2013-03-06 04:30:00,
2013-03-05 22:38:00,46.4,27.3,30.32,NNW,346,2.0,7.0,47,0.00,,---,0.00,0.00,VWS V14.00,2013-03-06 04:38:00,
2013-03-05 22:46:00,46.4,27.8,30.32,NNW,340,0.0,5.0,48,0.00,,---,0.00,0.00,VWS V14.00,2013-03-06 04:46:00,
2013-03-05 22:54:00,46.3,27.2,30.33,NNW,338,2.0,5.0,47,0.00,,---,0.00,0.00,VWS V14.00,2013-03-06 04:54:00,
2013-03-05 23:02:00,46.4,26.8,30.33,NW,317,2.0,9.0,46,0.00,,---,0.00,0.00,VWS V14.00,2013-03-06 05:02:00,
2013-03-05 23:06:00,46.4,26.8,30.33,NNW,329,3.0,9.0,46,0.00,,---,0.00,0.00,VWS V14.00,2013-03-06 05:06:00,
2013-03-05 23:08:00,46.4,26.8,30.33,NNW,342,4.0,9.0,46,0.00,,---,0.00,0.00,VWS V14.00,2013-03-06 05:08:00,
2013-03-05 23:10:00,46.4,27.3,30.33,NNW,337,0.0,6.0,47,0.00,,---,0.00,0.00,VWS V14.00,2013-03-06 05:10:00,
2013-03-05 23:18:00,46.5,27.9,30.33,NNW,328,6.0,6.0,48,0.00,,---,0.00,0.00,VWS V14.00,2013-03-06 05:18:00,
2013-03-05 23:27:00,46.4,27.8,30.33,NNW,337,2.0,6.0,48,0.00,,---,0.00,0.00,VWS V14.00,2013-03-06 05:27:00,
2013-03-05 23:35:00,46.0,28.4,30.33,NW,305,4.0,6.0,50,0.00,,---,0.00,0.00,VWS V14.00,2013-03-06 05:35:00,
2013-03-05 23:43:00,45.8,28.2,30.33,NNW,335,0.0,8.0,50,0.00,,---,0.00,0.00,VWS V14.00,2013-03-06 05:43:00,
2013-03-05 23:51:00,45.8,28.2,30.33,NNW,347,3.0,10.0,50,0.00,,---,0.00,0.00,VWS V14.00,2013-03-06 05:51:00,
2013-03-05 23:59:00,45.8,28.2,30.33,North,350,4.0,10.0,50,0.00,,---,0.00,0.00,VWS V14.00,2013-03-06 05:59:00,